Skip Page Navigation
NASA JPL Caltech
NASA Logo - Jet Propulsion Laboratory + View the NASA Portal
+ Center for Near-Earth Object Studies
JPL Home Earth Solar System Stars & Galaxies Technology
JPL Solar System Dynamics
BODIES ORBITS EPHEMERIDES TOOLS PHYSICAL DATA DISCOVERY FAQ SITE MAP
JPL Small-Body Database Browser
Search: [ help ]  
437641 (2014 BE39)
Classification: Main-belt Asteroid          SPK-ID: 2437641
Ephemeris | Orbit Diagram | Orbital Elements | Mission Design | Physical Parameters | Discovery Circumstances | Close-Approach Data ]

[ hide orbit diagram ]

For accurate long-term ephemerides, please instead use our Horizons system.This orbit viewer was implemented using two-body methods, and hence should not be used for determining accurate long-term trajectories (over several years or decades) or planetary encounter circumstances.


[ revert to old Java-based viewer ]

Orbital Elements at Epoch 2459000.5 (2020-May-31.0) TDB
Reference: JPL 10 (heliocentric ecliptic J2000)
 Element Value Uncertainty (1-sigma)   Units 
e .01628759762299734 6.4345e-08  
a 2.944323085690131 3.8966e-08 au
q 2.896367135998308 1.9945e-07 au
i 5.910512674747327 7.2168e-06 deg
node 168.576359776302 6.8975e-05 deg
peri 62.48508611557024 0.00024011 deg
M 15.02111818073963 0.00022829 deg
tp 2458923.502542393175
(2020-Mar-15.00254239)
0.0011704 TDB
period 1845.340966293627
5.05
3.6633e-05
1.003e-07
d
yr
n .1950858982570907 3.8727e-09 deg/d
Q 2.992279035381953 3.9601e-08 au
  Orbit Determination Parameters
   # obs. used (total)      112  
   data-arc span      7720 days (21.14 yr)  
   first obs. used      1999-03-10  
   last obs. used      2020-04-28  
   planetary ephem.      DE431  
   SB-pert. ephem.      SB431-N16  
   condition code      0  
   norm. resid. RMS      .56751  
   source      ORB  
   producer      Otto Matic  
   solution date      2020-May-22 03:42:36  

Additional Information
 Earth MOID = 1.89213 au 
 Jupiter MOID = 1.97402 au 
 T_jup = 3.264 
[ show covariance matrix ]

Ephemeris | Orbit Diagram | Orbital Elements | Mission Design | Physical Parameters | Discovery Circumstances | Close-Approach Data ]

Physical Parameter Table
Parameter Symbol Value Units Sigma Reference Notes
absolute magnitude H 16.6   n/a MPO434612  

437641 (2014 BE39)          Discovered 2006-Aug-19 by Spacewatch at Kitt Peak
Reference: Last Updated: 2015-06-04

[ show close-approach data ]
Alternate Designations
 2014 BE39 = 2011 PE16 
Ephemeris | Orbit Diagram | Orbital Elements | Mission Design | Physical Parameters | Discovery Circumstances | Close-Approach Data ]
ABOUT SSD CREDITS/AWARDS PRIVACY/COPYRIGHT GLOSSARY LINKS
FirstGov 2020-Sep-22 17:56 UT
(server date/time)  
NASA Home Page
Site Manager:   Ryan S. Park
Webmaster  Alan B. Chamberlin